This demonstration page uses our WeatherBlox Daily Observations layout. Learn more.

Left ArrowRight Arrow

41.86663, -103.66717

Hourly Observations for October 20, 2015

Temp ( °F °C ) Dew Point ( °F °C ) Humidity (%) Winds ( mph kmh ) Pressure ( in mb ) Visibility ( mi km ) Precip ( " mm )
12:53 am 00:53 Mostly Clear 52 11.1 44 6.7 75 75 N N/A 29.84 1010 10 16 N/A
1:53 am 01:53 Mostly Clear 48 8.9 42 5.6 80 80 N 6 9 29.84 1010 10 16 N/A
2:53 am 02:53 Clear 45 7.2 41 5 86 86 NW 6 9 29.84 1011 10 16 N/A
3:53 am 03:53 Clear 44 6.7 40 4.4 85 85 W 3 6 29.86 1011 10 16 N/A
4:53 am 04:53 Clear 42 5.6 39 3.9 89 89 NW 8 13 29.87 1011 10 16 N/A
5:53 am 05:53 Clear 43 6.1 39 3.9 86 86 NW 12 19 29.90 1012 10 16 N/A
6:53 am 06:53 Clear 46 7.8 40 4.4 79 79 NW 10 17 29.91 1013 10 16 N/A
7:53 am 07:53 Sunny 46 7.8 40 4.4 79 79 NW 7 11 29.93 1014 10 16 N/A
8:53 am 08:53 Mostly Sunny 50 10 42 5.6 74 74 NW 6 9 29.94 1014 10 16 N/A
9:53 am 09:53 Sunny 57 13.9 43 6.1 60 60 WNW 7 11 29.93 1014 10 16 N/A
10:53 am 10:53 Sunny 65 18.3 43 6.1 45 45 WNW 9 15 29.91 1013 10 16 N/A
11:53 am 11:53 Partly Cloudy 68 20 40 4.4 36 36 W 14 22 29.92 1013 10 16 N/A
12:53 pm 12:53 Sunny 71 21.7 41 5 34 34 WNW 12 19 29.89 1012 10 16 N/A
1:53 pm 13:53 Mostly Cloudy 74 23.3 38 3.3 27 27 WNW 10 17 29.89 1012 10 16 N/A
2:53 pm 14:53 Sunny 74 23.3 36 2.2 25 25 NW 9 15 29.88 1012 10 16 N/A
3:53 pm 15:53 Mostly Sunny 74 23.3 35 1.7 24 24 NNW 8 13 29.89 1012 10 16 N/A
4:53 pm 16:53 Mostly Cloudy 72 22.2 37 2.8 28 28 NW 5 7 29.91 1013 10 16 N/A
5:53 pm 17:53 Sunny 66 18.9 36 2.2 33 33 NNE 6 9 29.93 1014 10 16 N/A
6:53 pm 18:53 Cloudy 60 15.6 36 2.2 41 41 NNE 12 19 29.97 1015 10 16 N/A
7:53 pm 19:53 Mostly Cloudy 58 14.4 38 3.3 48 48 NNE 12 19 30.01 1016 10 16 N/A
8:53 pm 20:53 Cloudy 61 16.1 39 3.9 44 44 WNW 8 13 30.05 1018 10 16 N/A
9:53 pm 21:53 Cloudy 60 15.6 39 3.9 46 46 NNW 14 22 30.04 1017 10 16 N/A
10:53 pm 22:53 Mostly Clear 59 15 41 5 51 51 N 16 26 30.04 1017 10 16 N/A
11:53 pm 23:53 Cloudy 57 13.9 42 5.6 58 58 N 13 20 30.07 1018 10 16 N/A

Powered by AerisWeather